User: anonymous   Login
Location: Unspecified
(0.0000°N, 0.0000°E)
Time: 00:16:00
(UTC+00:00)
Language:

CBERS-1 - Orbit

View from above orbital plane
View from above orbital plane
View from above satellite
View from above satellite

Ground track
Ground track

The orbit data is extracted from the following two-line orbital elements,

1 25940U 99057A   17328.40130484 +.00000054 +00000-0 +34055-4 0  9995
2 25940 098.5067 265.8313 0004018 241.1953 118.8829 14.35409805948796
Epoch (UTC): 24 November 2017 09:37:52
Eccentricity: 0.0004018
inclination: 98.5067°
perigee height: 771 km
apogee height: 776 km
right ascension of ascending node: 265.8313°
argument of perigee: 241.1953°
revolutions per day: 14.35409805
mean anomaly at epoch: 118.8829°
orbit number at epoch: 94879

The dashed part of the orbit path shows where the satellite is in the earth's shadow,  

DLR